Theta_e
297 297 297 298 298 299 300 301 302 302 303 304 305 305 305 306 306 307 308 308 308 308 308 308 308 308 308 309 309 309 308 308 310 310 309 308 307 307 308 309 309 307 307 307 308 310 310 309 308 310 310 311 313 313 312 311 315 321 320 319 323 325 316 312 312 312 314 315 315 314 315 315 314 315 314 314 316 317 317 317 318 315 312 311 309 310 310 311
297 297 298 299 299 300 301 302 302 303 304 305 306 305 305 306 307 308 308 308 308 308 308 308 309 308 308 309 309 308 308 308 310 310 309 308 307 307 308 309 309 308 307 307 308 310 311 310 308 309 310 313 315 313 314 312 314 319 318 317 325 324 313 311 313 313 314 314 314 313 314 314 314 316 314 314 317 316 317 316 316 317 317 313 308 309 310 309
298 298 299 300 300 301 302 302 303 304 305 306 305 305 306 307 308 308 308 308 308 309 309 308 308 308 308 308 308 308 308 309 310 309 309 308 308 307 308 310 309 308 307 308 308 309 310 310 308 309 310 314 316 314 315 316 316 317 314 317 322 317 311 311 312 313 314 314 314 315 314 312 313 315 313 314 317 317 317 315 315 316 316 315 311 308 308 309
299 300 301 301 302 302 303 304 305 305 306 306 305 306 307 307 308 308 308 309 308 309 309 309 308 308 309 308 309 308 309 314 312 308 308 308 308 307 309 309 309 309 307 307 308 309 309 309 308 309 311 315 322 319 315 314 316 317 315 316 315 312 311 311 312 313 313 314 313 314 313 312 314 313 313 316 315 315 315 314 316 316 314 315 314 309 307 307
301 301 302 302 303 303 304 305 305 306 306 305 306 307 308 308 308 308 309 308 309 309 309 309 308 308 309 308 309 306 311 321 314 308 309 308 308 308 309 310 309 309 307 307 308 309 310 309 308 311 313 316 325 322 314 312 313 317 317 313 311 311 311 311 311 311 313 314 313 314 314 313 314 313 314 317 314 314 316 315 315 316 314 314 313 310 307 307
302 302 303 303 304 305 305 306 306 306 306 306 307 308 308 309 308 309 309 309 309 309 309 309 309 309 309 308 310 309 315 320 312 308 309 309 309 308 309 310 308 308 308 308 309 310 311 310 308 312 315 315 320 318 314 314 315 319 316 311 311 313 311 310 311 311 313 313 313 314 314 313 313 314 317 316 313 314 319 322 319 316 312 311 312 311 310 309
303 303 303 304 305 305 306 306 306 306 306 307 308 308 309 309 309 309 309 309 308 309 309 309 309 309 309 310 313 316 317 313 308 308 309 309 309 309 309 310 309 308 309 309 309 310 310 311 310 313 320 318 317 317 316 319 322 323 317 311 311 311 311 311 311 312 312 312 311 311 311 313 314 315 316 315 313 314 317 321 321 315 310 311 315 318 316 311
303 303 304 305 305 306 306 306 306 306 308 308 308 309 309 309 308 309 309 309 308 309 309 309 310 309 310 309 312 320 317 309 308 309 309 309 309 309 309 309 309 308 309 309 309 310 310 312 313 314 320 320 318 319 318 322 326 322 316 312 310 311 311 311 311 311 311 311 310 310 310 313 314 313 312 311 311 312 313 315 317 314 312 313 316 319 320 316
304 304 305 306 306 306 306 306 306 307 308 308 309 309 309 308 308 309 309 309 309 310 309 310 310 310 311 309 313 320 314 308 308 309 309 310 310 309 309 309 309 309 310 309 309 310 310 311 313 314 318 318 319 321 318 322 326 318 315 314 311 311 311 311 311 311 310 311 310 310 312 312 312 310 309 309 309 309 310 311 313 312 312 313 313 315 317 318
304 305 306 306 306 306 306 307 307 308 309 309 309 309 309 309 309 309 309 309 309 309 310 310 310 312 312 312 318 318 310 308 309 309 310 310 309 309 309 309 310 311 310 309 310 310 311 312 312 315 320 319 320 320 315 320 322 316 316 316 313 312 311 311 311 311 311 310 310 310 311 311 310 309 310 310 309 309 309 309 309 310 311 310 312 314 314 316
305 305 306 305 306 306 306 307 307 309 309 308 309 308 309 310 309 309 309 309 309 310 310 310 311 312 311 312 318 314 308 309 309 309 310 310 310 309 310 309 310 311 310 309 309 310 311 310 311 317 321 317 318 319 315 318 317 315 316 316 318 315 311 311 310 311 311 309 311 310 310 310 309 309 310 309 310 310 311 310 308 309 309 310 310 311 312 313
305 305 305 306 306 306 307 307 308 309 309 309 309 308 309 310 310 310 310 310 310 310 311 311 312 312 313 313 312 311 309 310 309 310 310 310 310 309 310 310 310 310 310 310 310 312 311 311 317 321 319 315 317 318 315 316 316 316 315 317 325 320 313 313 311 311 310 309 311 310 311 313 310 311 312 309 308 309 311 311 310 309 309 309 309 309 310 310
305 305 305 305 305 306 307 308 309 309 309 309 309 309 310 310 310 310 310 310 310 311 311 313 313 313 319 318 311 309 310 310 310 310 310 311 310 310 310 310 310 310 310 311 311 312 312 312 317 319 318 320 320 315 314 315 316 318 316 316 321 322 324 317 309 310 310 309 311 311 313 316 313 313 313 311 308 308 310 311 310 310 309 308 309 308 308 308
305 305 305 305 305 307 308 308 309 309 309 309 309 309 310 310 311 310 310 310 311 312 313 314 315 315 319 317 310 310 311 310 310 310 310 310 310 310 310 310 310 310 310 311 311 311 312 312 314 317 316 318 316 313 315 315 314 318 318 320 317 317 330 322 308 311 311 310 312 312 315 315 311 311 312 311 310 310 311 311 310 310 309 309 310 309 309 309
305 305 306 305 306 307 308 309 309 309 309 309 309 309 310 310 310 310 311 311 311 312 313 314 314 316 320 315 309 311 311 310 310 310 310 309 310 310 310 310 310 311 310 310 311 311 312 312 315 319 316 317 319 319 322 318 316 318 318 328 326 316 326 324 311 312 312 311 312 312 316 315 311 311 312 312 312 312 311 311 311 310 309 309 310 310 310 310
306 306 305 305 307 308 308 309 309 309 309 309 310 310 310 310 310 311 310 310 311 312 313 314 312 317 321 314 310 311 309 309 310 309 310 310 310 310 310 310 310 311 310 310 312 310 310 315 318 317 317 320 321 322 328 327 329 329 319 322 325 318 321 321 314 314 313 312 312 312 315 315 312 311 312 311 311 311 311 311 310 310 310 309 310 310 309 310
306 306 306 306 307 308 309 309 309 309 309 310 310 310 310 310 311 311 310 311 311 311 312 313 311 316 318 312 309 311 309 310 310 309 310 310 309 310 309 309 310 309 310 310 311 312 311 314 315 315 319 320 320 326 329 328 333 335 325 321 322 318 317 317 318 317 314 313 313 314 313 311 311 311 310 310 310 311 310 310 310 310 310 310 310 310 309 309
306 306 306 307 308 308 309 309 309 309 309 310 309 310 311 310 310 310 312 312 312 313 314 313 314 318 317 312 310 310 309 309 309 309 309 309 309 310 309 310 310 308 311 312 311 313 315 317 320 325 328 321 321 326 319 317 323 325 323 322 321 320 318 316 317 316 314 315 315 316 315 312 311 310 310 309 310 311 311 310 310 310 310 310 310 309 309 309
306 306 307 308 308 308 309 309 309 309 309 310 310 310 310 312 314 313 310 312 317 319 316 314 317 318 315 311 309 308 309 309 309 309 307 309 310 310 310 310 308 311 317 320 317 317 320 329 331 332 331 321 319 320 314 315 319 319 319 319 319 320 319 316 314 317 316 315 318 318 316 315 312 310 310 308 309 310 310 310 309 310 310 310 310 309 309 309
306 305 307 309 309 309 309 309 310 310 311 311 311 313 316 321 324 319 314 314 315 315 315 315 315 313 312 310 309 308 310 310 309 309 307 309 309 310 313 311 312 321 323 321 320 318 326 337 330 323 324 319 315 315 315 316 317 318 319 319 319 318 316 314 314 319 315 314 321 321 315 313 310 309 309 308 309 310 310 311 311 312 312 311 310 310 310 310
305 304 307 308 308 309 309 309 311 313 314 312 312 317 321 322 321 317 316 315 311 311 314 315 311 310 309 309 308 308 310 311 310 310 307 308 310 311 316 317 320 325 323 320 320 323 332 333 321 316 316 313 313 314 315 317 317 319 318 318 319 317 316 315 315 319 315 313 318 316 312 311 309 309 309 308 311 314 314 313 312 313 311 310 309 310 311 311
305 304 307 308 308 309 309 309 311 313 316 315 313 316 315 314 314 312 315 315 311 310 313 314 312 310 309 308 308 308 310 312 313 312 306 308 313 313 319 323 322 322 323 327 327 332 337 326 316 314 313 313 317 317 316 317 319 320 319 318 318 318 318 319 318 317 314 311 312 312 311 310 309 309 310 312 315 317 314 311 312 312 309 308 308 309 310 310
305 305 307 308 308 310 309 309 309 312 317 316 313 312 309 309 310 310 316 318 313 312 314 315 314 312 311 309 306 310 313 312 313 312 306 308 312 314 319 321 323 325 324 325 324 326 329 320 314 315 315 317 319 320 320 320 321 321 318 317 319 318 315 317 319 313 311 311 311 312 312 311 310 310 311 313 315 313 310 309 312 311 309 308 308 309 309 310
305 306 308 309 309 309 310 309 309 311 314 314 311 310 309 309 309 311 318 322 317 314 313 312 311 310 310 308 306 312 315 310 310 309 305 308 312 314 317 317 323 329 323 322 322 323 321 314 312 316 318 317 317 322 322 320 321 320 317 317 317 316 313 312 313 310 310 313 312 311 314 317 315 311 312 312 310 309 307 308 310 309 309 308 307 308 309 310
304 305 308 309 309 310 310 309 309 311 312 312 309 308 309 309 309 311 319 323 319 315 313 310 311 310 308 308 308 312 315 312 310 308 305 308 311 315 318 315 318 323 322 323 323 323 320 312 312 319 320 318 319 320 317 315 318 318 317 315 313 313 312 311 311 311 312 315 313 310 316 324 319 313 314 312 309 308 308 308 309 308 308 309 308 308 309 310
304 305 308 309 309 309 310 310 312 312 313 314 312 310 309 309 310 310 320 328 321 315 314 312 312 312 310 310 311 313 316 314 310 307 307 308 308 312 318 317 317 318 317 318 317 316 318 313 313 317 317 320 324 320 315 313 314 316 314 312 312 312 312 311 311 312 314 315 312 309 315 323 318 317 317 312 310 309 309 309 309 307 308 309 309 308 309 310
304 305 308 309 308 310 311 315 317 314 313 316 316 313 308 309 309 309 321 329 320 313 313 314 312 311 311 311 312 313 311 310 310 309 308 309 308 311 318 318 317 318 315 318 319 314 316 319 318 319 320 324 324 318 314 311 311 315 314 310 313 314 311 310 309 311 314 314 313 311 315 317 318 323 319 311 311 311 311 311 310 309 309 310 311 310 311 310
305 304 307 309 308 310 312 314 316 315 315 315 315 312 310 310 308 315 325 319 312 311 311 313 312 309 310 311 313 314 311 311 311 309 309 309 308 313 321 316 313 317 317 318 317 311 314 318 317 317 319 321 319 314 313 310 310 316 315 311 312 311 310 309 309 313 313 314 319 318 314 314 318 323 316 313 314 311 311 312 311 310 310 311 313 313 314 312
306 304 307 308 308 310 311 310 310 312 314 312 311 310 309 308 310 326 331 313 309 315 312 313 312 310 314 317 319 316 315 316 311 310 313 311 307 310 317 316 312 316 316 315 314 313 314 313 312 315 315 316 317 316 313 309 311 316 314 311 312 311 310 310 311 314 314 317 323 321 314 311 314 316 312 315 315 310 312 314 312 313 313 312 313 313 315 315
306 304 306 308 308 309 309 309 309 310 310 310 310 309 309 313 324 336 326 310 312 316 313 313 310 312 317 321 322 317 316 318 314 315 316 311 307 307 311 312 312 316 318 318 319 315 313 311 310 313 314 313 315 315 311 309 311 314 315 315 315 315 314 313 312 313 315 319 326 323 314 308 311 316 313 312 313 311 313 313 313 316 315 313 315 314 314 314
306 305 305 306 308 308 310 313 311 309 309 309 309 309 312 320 331 331 315 308 315 316 315 314 312 315 317 316 314 312 317 319 315 318 318 313 308 305 308 310 312 319 318 316 316 313 317 319 314 313 312 310 312 314 314 314 311 310 314 315 313 316 318 317 319 319 312 313 324 324 313 307 312 318 315 311 314 316 314 310 308 312 314 314 315 313 313 312
305 305 304 306 308 308 311 314 311 308 309 309 309 316 326 329 323 317 314 313 314 312 310 311 314 316 315 315 311 308 315 317 315 316 316 317 312 305 307 307 308 313 310 310 311 312 319 320 314 314 311 307 309 312 314 317 313 310 313 315 315 318 316 314 318 317 310 310 316 315 309 309 313 315 315 313 315 317 317 314 309 310 314 313 311 310 310 309
305 305 305 306 307 307 308 310 309 309 308 308 315 325 333 331 315 308 315 315 310 309 308 309 316 316 314 316 312 308 313 313 312 313 313 317 316 311 309 307 307 307 306 310 309 309 317 316 312 314 311 308 310 308 308 312 312 310 313 314 317 318 311 310 314 312 309 310 309 307 308 311 314 314 315 314 313 314 318 323 319 312 309 308 307 307 309 308
305 305 306 306 307 307 308 308 308 309 308 312 326 335 327 319 311 309 315 314 309 311 312 310 316 319 315 312 309 308 312 311 310 312 314 316 315 314 311 308 307 306 308 311 307 306 311 312 311 310 307 309 312 309 306 308 310 311 311 311 315 316 309 310 314 310 310 311 308 307 309 312 314 314 312 310 311 313 315 321 318 309 306 308 309 308 308 309
306 306 307 307 307 307 307 308 308 308 310 313 323 330 321 312 310 312 315 313 310 310 311 311 315 320 318 313 311 308 306 309 312 312 313 313 312 313 310 306 306 306 308 310 307 306 308 310 312 309 306 308 310 310 307 307 311 311 312 314 316 315 310 312 313 310 310 311 312 311 311 312 311 310 311 309 309 310 310 312 310 306 307 310 310 309 309 309
308 308 307 306 307 307 307 308 307 308 314 317 318 317 313 308 307 310 309 308 308 306 310 317 316 316 317 315 314 310 305 307 311 311 312 311 310 311 309 307 306 305 305 306 307 307 307 312 315 308 308 310 307 308 309 308 308 310 312 314 312 310 310 311 312 311 309 309 312 312 310 311 308 310 318 315 309 307 307 308 307 305 307 308 308 309 309 309
307 307 307 307 308 308 308 308 308 310 313 316 318 313 309 307 305 307 307 306 304 303 311 319 313 308 311 311 311 310 309 309 310 310 310 310 309 308 309 309 306 304 303 303 307 308 305 310 315 308 308 311 306 307 310 308 306 308 312 310 308 310 313 311 308 312 313 309 310 309 308 308 307 311 318 315 310 308 305 306 305 305 306 306 307 308 308 307
308 309 309 307 308 308 310 311 311 314 311 312 318 314 310 310 306 305 307 305 303 306 312 315 309 306 308 309 308 308 310 312 312 310 311 311 309 306 307 307 305 304 303 302 306 309 305 308 315 311 306 309 308 307 312 311 306 305 307 308 307 308 312 311 308 311 311 307 309 310 308 307 308 314 317 311 308 306 303 305 305 305 306 305 307 308 308 307
312 317 314 308 308 308 310 311 309 311 312 314 318 314 310 310 307 305 306 303 304 309 310 308 307 308 308 307 307 310 311 309 309 311 311 308 307 306 304 304 305 305 304 303 306 309 307 306 312 312 306 308 310 308 311 315 310 307 308 311 310 307 310 311 308 310 310 308 312 313 309 308 311 318 315 306 304 304 303 305 304 305 306 306 307 308 308 306
316 321 314 306 309 309 308 308 307 310 315 314 314 312 309 310 308 306 305 304 306 308 306 306 308 310 310 308 308 310 310 308 308 310 309 305 304 307 303 301 305 306 303 304 306 308 308 307 309 311 308 308 308 307 309 309 309 310 311 310 310 310 311 309 306 309 311 312 313 312 309 307 307 310 307 303 304 304 304 304 303 303 305 306 307 307 307 306
320 324 314 306 309 309 309 311 309 312 317 314 313 312 310 309 309 308 307 306 307 306 304 306 309 310 310 310 311 309 307 310 311 309 308 305 304 306 302 298 302 304 303 307 307 305 306 306 307 309 308 308 307 307 308 306 304 306 307 308 310 311 310 306 306 310 310 309 310 309 306 305 303 304 303 304 305 304 304 304 302 302 303 305 306 306 306 306
324 323 311 308 309 307 310 314 312 315 318 312 310 310 309 309 308 307 308 306 306 307 307 307 309 310 308 308 311 310 309 310 311 308 307 305 304 305 303 297 299 300 301 305 305 302 303 303 305 309 309 305 304 305 304 303 303 304 305 307 309 311 310 307 308 310 308 306 307 306 306 306 304 304 305 305 305 303 304 303 302 302 302 304 306 306 306 305
324 316 307 308 310 308 312 315 313 313 311 306 305 306 307 309 310 307 308 307 306 309 311 308 307 307 306 306 308 310 309 307 307 308 306 306 306 305 302 299 299 299 300 305 305 301 301 303 305 310 310 305 304 305 302 301 304 305 306 306 306 309 312 310 308 307 306 306 305 305 307 307 304 304 305 305 303 302 302 302 301 301 302 304 305 304 305 303
320 310 307 309 307 310 319 320 314 312 310 308 307 306 306 308 309 309 309 308 307 308 310 308 306 305 306 307 308 309 307 304 305 307 305 305 305 302 300 299 299 300 301 304 304 300 301 307 308 309 310 305 303 303 302 302 304 304 305 307 306 307 309 308 305 304 306 308 306 304 306 305 302 303 304 302 302 301 301 301 301 302 303 303 302 301 301 299
319 313 312 310 305 310 319 317 316 315 314 315 312 308 310 309 307 308 308 307 306 307 307 307 306 305 307 309 309 309 307 305 305 305 304 305 305 303 301 300 298 301 302 300 299 300 304 308 307 307 307 303 302 303 303 303 303 302 303 305 305 305 305 305 304 305 307 307 305 306 306 303 301 302 302 301 301 301 301 301 301 302 302 300 299 298 297 296
322 319 318 316 309 310 313 313 318 319 316 320 316 308 311 310 306 307 309 307 307 307 308 307 305 305 308 310 310 311 310 307 305 306 306 306 307 306 301 299 299 299 300 298 296 299 305 307 307 309 310 306 304 304 304 303 303 303 304 304 303 304 304 303 303 305 306 305 304 305 305 302 302 302 301 301 301 301 301 301 300 300 298 297 296 296 295 295
320 315 313 315 313 316 317 314 318 318 314 319 315 306 310 310 306 309 309 305 307 308 308 309 308 308 308 307 308 311 311 308 305 305 304 304 308 306 299 298 301 299 299 299 297 299 304 307 306 307 309 308 306 304 304 304 303 302 303 304 304 304 303 303 303 304 305 305 304 304 303 303 303 301 301 301 300 299 300 299 299 297 295 295 295 294 294 294
316 311 307 308 309 316 318 311 313 315 315 318 313 307 314 314 309 309 306 305 309 308 307 310 310 310 309 306 307 310 310 310 308 306 303 303 306 307 304 302 302 300 300 300 298 299 303 307 307 305 306 308 306 304 303 302 301 302 303 303 303 303 303 303 303 303 303 303 304 303 303 303 302 300 299 298 297 296 297 297 296 295 294 294 293 293 293 293
311 310 306 307 310 311 308 307 312 314 315 318 314 309 314 316 312 308 305 307 312 309 306 307 306 309 311 309 308 308 308 307 306 305 304 303 302 306 309 306 301 299 299 300 299 298 300 309 309 303 304 305 303 303 303 302 303 303 302 303 302 303 304 303 303 303 302 303 303 302 303 302 300 297 296 296 295 294 294 295 295 294 294 294 293 292 292 292
312 312 308 311 315 310 307 308 315 317 314 315 314 307 311 316 313 309 306 306 308 307 306 305 304 308 313 311 308 308 306 304 303 303 304 303 302 305 306 303 300 301 301 301 301 299 299 307 308 303 303 303 302 304 305 303 304 303 301 303 303 302 303 303 303 303 302 303 302 301 301 300 297 295 295 295 294 293 293 294 295 294 294 293 292 292 292 292
307 307 306 312 313 309 310 311 317 322 316 312 312 307 309 314 311 309 309 306 305 305 306 304 305 309 312 310 308 309 307 304 303 303 302 302 303 303 302 299 299 301 303 302 302 300 300 304 306 305 304 303 301 304 303 302 303 303 303 303 302 302 302 302 302 301 300 300 300 299 299 298 296 294 294 294 293 292 292 292 294 295 294 293 292 292 291 291
306 303 306 315 312 308 312 313 317 320 310 306 309 308 308 311 309 308 308 307 307 307 305 304 305 308 311 310 307 304 301 300 301 300 299 298 299 298 298 297 297 298 301 302 301 301 301 301 304 305 305 303 301 302 302 301 302 304 304 302 300 301 302 301 300 298 297 297 297 298 297 296 294 293 293 294 292 292 292 292 293 295 294 292 292 291 291 291
Wind_Speed
2 2 1 1 1 2 4 3 2 1 1 2 3 5 7 8 9 9 10 10 10 12 13 13 10 5 5 6 5 4 6 6 8 16 14 12 20 18 13 12 12 11 10 9 9 10 11 11 15 15 9 5 1 2 1 1 2 4 3 1 3 3 1 2 2 2 1 2 5 6 7 8 5 3 2 0 1 2 4 5 5 5 8 7 6 10 13 23
1 1 1 2 3 4 4 2 2 1 1 3 5 6 8 8 8 9 9 8 8 12 15 15 8 1 4 6 5 4 5 6 5 11 13 18 24 17 11 11 11 9 9 8 6 7 7 7 12 13 6 2 1 1 1 1 2 2 2 0 3 4 2 2 1 3 4 3 7 5 6 6 6 5 3 2 5 4 6 7 5 7 9 8 5 15 21 27
2 2 3 4 4 4 3 2 2 1 2 4 6 7 8 7 7 8 7 5 7 12 16 16 10 4 4 5 4 4 6 5 3 5 13 21 22 14 9 9 9 8 7 6 5 5 4 8 13 9 3 3 3 1 1 1 1 1 2 0 5 4 1 3 4 3 4 2 6 4 6 5 5 6 3 4 7 6 9 8 6 9 11 9 5 14 21 24
3 4 4 4 4 3 3 3 2 2 4 5 7 7 7 7 7 8 5 2 6 10 13 15 11 6 5 3 2 3 4 5 3 6 15 20 20 13 7 7 8 7 6 6 6 6 7 11 12 5 1 3 4 2 2 1 1 1 2 4 5 2 1 3 3 3 5 0 5 5 5 5 5 5 4 5 5 7 9 10 11 13 13 10 7 10 18 20
4 4 4 4 4 3 3 2 2 3 5 6 6 6 6 8 8 8 4 2 4 8 11 12 10 6 3 0 2 4 4 4 3 10 16 20 19 13 6 6 6 5 5 6 8 9 10 10 6 3 1 2 4 4 2 3 2 1 1 5 3 2 0 3 3 3 5 2 3 6 6 5 4 3 5 8 7 8 7 9 12 14 13 12 11 11 15 16
4 4 4 4 4 3 2 1 3 4 6 5 5 5 6 7 8 8 3 2 3 6 9 9 6 4 2 3 4 5 3 3 6 12 16 19 19 14 7 5 5 5 5 6 8 9 9 6 2 2 1 0 2 2 2 5 3 1 4 2 2 2 1 2 2 3 4 4 4 5 4 3 3 5 5 9 12 10 6 8 10 13 14 14 13 11 12 14
4 4 4 4 3 2 1 2 4 5 4 3 4 4 5 6 9 9 5 3 3 4 7 7 5 4 3 5 5 4 4 2 9 14 16 17 18 14 7 5 5 5 5 6 8 6 5 5 2 2 1 1 1 1 2 5 4 3 2 2 1 1 1 2 2 4 3 3 1 2 3 2 6 6 3 9 15 11 9 9 8 10 12 12 9 9 11 14
4 4 4 3 2 1 1 3 5 4 2 2 2 3 4 7 9 10 7 5 5 4 5 6 7 6 6 5 3 4 3 3 11 14 15 16 17 14 8 6 7 7 8 8 7 4 4 5 4 0 2 0 1 1 2 4 5 3 2 3 1 1 2 2 2 3 3 2 2 2 3 5 7 4 6 15 16 12 12 10 11 11 11 10 9 10 10 10
4 3 3 2 1 1 3 4 3 2 1 1 2 3 6 8 8 9 9 6 5 4 5 6 8 9 9 5 3 3 3 6 10 13 16 16 16 14 9 8 8 9 11 8 5 6 2 1 3 1 2 1 2 1 3 2 1 1 3 3 1 2 3 3 3 4 4 3 0 1 6 7 6 3 9 18 17 14 12 11 12 13 14 14 11 12 11 10
4 3 2 1 1 3 4 3 1 2 1 1 3 5 8 9 8 7 7 4 2 4 5 5 6 11 10 3 5 3 5 7 9 11 15 15 13 15 13 10 9 9 7 4 7 8 2 1 3 1 4 2 2 1 2 2 2 2 1 2 2 4 4 3 4 5 4 3 2 4 7 8 5 2 7 14 13 10 10 11 12 11 14 15 12 11 11 12
4 3 1 1 2 3 2 1 1 2 2 2 4 7 9 8 5 4 6 5 3 2 3 4 7 11 9 5 6 2 5 8 8 11 14 14 11 12 16 13 10 10 6 5 7 6 3 4 4 2 2 1 1 2 2 2 1 2 1 4 6 5 6 4 5 6 2 2 4 6 8 8 3 3 11 17 11 6 8 10 11 11 13 13 12 12 9 10
3 2 1 1 1 2 1 1 2 2 2 3 5 8 9 5 4 5 7 6 5 5 4 5 7 9 7 7 4 1 6 8 10 12 11 14 11 8 14 14 13 12 6 5 5 7 6 6 5 4 1 1 1 2 2 2 1 1 2 2 7 5 6 7 6 4 4 2 4 4 7 7 5 9 17 18 12 5 7 9 9 11 12 11 11 10 9 10
2 1 0 1 2 1 1 2 2 2 2 4 6 9 7 3 4 6 6 4 3 5 6 5 7 7 5 4 1 2 7 7 9 12 10 12 10 5 9 10 12 12 7 6 4 7 7 3 6 5 2 4 1 1 1 1 2 2 1 1 4 7 6 8 5 4 5 4 3 3 4 7 6 12 15 13 10 6 7 10 10 9 9 9 9 8 9 10
2 2 1 2 2 1 1 2 2 2 3 5 7 7 5 2 4 5 5 4 3 5 7 5 6 6 4 1 3 3 8 7 8 11 12 13 12 8 9 8 8 8 6 7 4 5 6 4 7 5 2 3 2 1 2 3 1 1 2 1 2 3 5 7 2 5 3 3 3 6 2 10 8 9 12 11 8 7 9 11 10 9 8 8 8 8 8 8
3 2 2 3 2 1 2 2 2 2 3 5 6 5 5 4 5 4 4 3 3 6 6 3 6 5 4 1 3 3 7 7 8 13 13 13 12 10 12 13 10 7 4 3 4 4 3 3 5 4 1 2 2 2 3 3 2 1 2 3 4 1 5 8 3 7 5 2 4 5 3 10 11 9 10 8 6 4 8 10 9 10 9 9 8 7 8 8
3 2 4 3 1 2 2 2 1 2 3 5 5 5 6 6 6 4 3 1 2 6 6 5 8 4 4 2 3 4 5 6 10 13 10 9 10 10 14 15 10 5 6 5 3 3 2 3 3 2 1 4 4 2 3 4 4 3 3 3 5 4 5 7 6 4 3 1 1 2 4 7 10 10 10 8 9 9 10 11 10 9 9 9 8 7 7 8
2 3 4 2 1 2 2 1 0 2 3 3 2 4 5 5 6 4 3 3 1 3 5 7 8 3 4 2 2 4 6 7 12 12 10 10 10 10 11 9 6 7 8 8 5 3 2 2 1 0 3 4 3 3 5 5 4 4 3 2 4 4 5 5 6 5 1 1 2 4 5 10 15 16 16 12 9 11 13 14 13 10 9 8 7 7 7 8
2 3 3 1 2 2 2 2 1 1 2 2 2 2 3 6 11 11 4 3 2 2 3 6 7 3 2 4 2 7 11 12 13 12 14 14 9 8 8 5 5 9 9 5 2 1 3 2 2 2 3 5 5 6 5 2 3 3 3 3 4 4 5 6 6 4 2 2 4 5 6 14 18 17 20 15 7 10 13 13 12 10 9 9 8 8 8 8
2 3 2 1 2 3 4 4 4 4 3 4 4 2 2 3 8 14 16 10 3 2 1 4 4 3 2 4 5 11 13 11 9 10 18 18 11 9 8 5 4 4 4 3 3 2 1 3 4 4 3 4 3 4 3 5 5 5 5 3 5 6 6 8 7 4 1 2 5 7 8 13 17 17 20 18 8 8 12 10 9 8 8 7 8 9 8 7
2 2 2 3 3 5 7 8 7 6 4 3 3 2 1 2 4 6 12 11 3 3 3 2 1 2 2 4 7 13 10 6 3 8 22 21 11 9 5 2 2 3 3 0 3 2 4 5 3 1 4 5 3 2 4 3 3 3 3 3 6 6 6 8 7 4 3 2 6 7 7 12 17 18 19 18 12 8 9 8 7 6 5 4 5 6 6 6
1 0 3 3 4 7 10 11 8 6 4 2 1 2 1 0 3 1 3 4 2 1 2 4 1 2 2 4 7 11 5 2 4 7 23 20 5 3 4 3 5 4 3 2 2 3 5 6 1 4 5 4 4 3 1 2 3 3 3 4 6 5 7 7 4 4 5 4 6 8 9 14 17 16 17 15 11 8 7 7 7 7 7 7 8 9 8 6
1 1 3 4 5 8 11 11 6 8 6 3 3 4 3 4 4 3 2 2 3 3 2 4 3 1 4 2 6 8 2 4 6 7 21 20 5 3 4 4 5 3 5 3 4 6 5 3 4 4 2 3 4 3 2 3 3 3 3 3 6 5 5 7 4 5 6 5 8 10 10 14 16 14 13 11 7 6 7 5 5 9 11 10 10 11 9 8
1 1 3 4 6 8 11 10 4 7 8 4 4 5 5 5 4 2 2 3 2 3 3 4 3 3 5 2 7 8 3 4 4 7 18 17 5 4 3 5 5 3 5 6 4 4 4 3 5 4 5 5 5 4 4 4 4 3 3 3 6 5 4 5 5 7 7 4 6 9 9 9 10 9 7 8 6 5 9 11 10 9 9 8 8 8 8 9
1 2 3 5 7 9 11 10 3 4 7 5 6 6 5 4 4 3 2 3 1 3 1 1 1 1 3 2 7 7 2 2 2 6 14 11 4 4 3 3 5 4 5 5 4 4 1 4 3 5 5 4 4 6 6 5 5 4 4 3 5 5 3 4 6 9 8 4 2 6 8 5 6 10 8 7 8 10 10 12 11 8 7 7 8 8 7 7
3 4 5 7 8 9 10 8 4 1 3 3 5 5 4 4 5 6 3 3 3 3 1 1 1 2 4 2 4 2 1 2 0 4 9 8 4 3 2 1 3 5 7 6 5 4 1 3 2 5 5 5 5 5 5 4 5 6 4 3 4 6 6 6 7 9 6 4 3 7 6 5 6 8 6 5 8 10 8 8 8 6 7 7 8 8 7 6
5 6 7 7 8 9 8 5 2 2 2 2 2 3 3 2 4 6 3 4 3 3 3 2 1 5 8 4 3 1 2 3 1 2 6 7 3 1 3 4 2 3 5 4 4 2 2 4 3 4 4 6 6 4 3 3 5 6 4 3 4 6 7 6 6 5 3 4 4 4 3 4 7 7 5 4 7 8 7 7 6 5 5 6 5 5 6 6
7 8 8 8 8 8 5 2 2 2 2 3 4 5 5 2 4 5 3 4 4 2 3 3 1 5 7 7 7 4 3 6 4 4 5 7 5 1 4 6 3 3 3 3 4 2 2 6 6 6 5 6 6 4 4 3 5 5 4 1 6 9 8 5 2 1 2 3 6 3 4 2 5 7 6 3 6 7 8 7 6 5 3 4 5 5 5 5
8 10 10 9 8 8 4 2 1 2 2 5 6 5 7 4 3 3 5 4 3 1 1 3 3 4 6 8 9 6 1 5 3 4 6 9 8 2 4 5 3 4 3 5 5 4 3 5 5 5 6 5 3 4 5 2 2 7 6 2 8 8 6 4 2 3 2 2 5 5 1 0 5 7 6 4 6 6 6 6 7 6 5 5 5 5 5 5
10 11 12 10 10 8 4 2 1 3 5 7 6 3 6 3 2 4 5 3 2 2 1 2 3 5 7 8 7 5 3 3 2 5 6 9 12 7 3 2 2 3 4 5 2 3 1 1 1 2 5 2 4 6 5 1 2 8 6 6 6 3 1 3 3 2 2 4 2 6 1 1 5 6 5 4 4 3 6 6 7 5 6 5 4 5 6 6
11 12 14 12 11 8 2 2 4 5 6 5 2 4 3 1 4 6 5 1 1 3 2 3 3 4 8 8 6 6 5 3 2 5 5 6 12 10 3 1 4 5 5 6 3 1 3 2 2 3 2 3 5 6 3 3 5 6 6 6 6 4 3 2 1 2 4 3 5 7 2 2 3 5 3 2 2 4 5 4 6 6 6 6 5 5 5 5
11 12 14 13 11 8 4 3 4 5 3 1 3 3 2 3 4 6 3 1 1 4 4 4 3 4 8 6 5 6 5 5 5 6 6 5 10 11 7 5 5 5 6 7 6 5 6 4 2 1 2 1 2 4 4 1 1 5 5 4 5 5 4 4 4 4 4 4 7 6 2 1 2 5 5 5 6 6 5 3 5 6 6 6 5 5 4 5
12 12 13 10 9 7 3 2 3 2 1 2 2 3 4 4 5 4 1 3 2 3 3 3 4 6 7 4 5 7 5 5 5 5 4 4 7 8 8 6 5 5 7 6 6 7 5 3 4 4 2 1 2 4 6 5 5 6 4 5 6 4 5 5 5 4 2 6 7 3 2 1 5 6 7 7 7 8 8 6 5 7 6 5 4 4 4 5
13 12 11 8 7 5 2 1 1 1 1 1 3 4 6 6 4 1 3 3 1 2 2 2 5 6 5 5 6 7 4 4 6 6 4 3 5 5 6 7 6 4 2 2 5 6 4 6 6 4 2 1 3 4 5 5 5 6 3 4 3 2 4 5 4 4 4 7 10 3 3 2 5 5 7 8 8 10 9 6 6 6 4 2 2 5 6 6
11 9 10 9 6 4 3 2 1 2 3 4 4 6 8 6 1 2 3 3 2 3 3 2 6 6 5 4 3 5 4 3 5 6 5 5 5 5 5 7 8 4 0 1 3 3 4 6 4 3 3 2 3 1 1 2 3 4 2 4 3 2 2 2 2 3 5 7 11 5 3 3 5 5 8 7 7 8 7 5 4 5 3 0 3 6 6 7
13 11 12 12 10 8 6 3 2 3 5 6 7 7 7 4 2 2 2 4 3 4 5 4 5 6 6 3 2 4 3 3 4 6 5 5 4 3 4 5 7 5 2 3 2 1 3 5 7 2 1 0 1 2 2 2 2 4 1 4 2 2 4 2 3 5 4 5 7 4 1 4 4 8 9 4 4 7 6 6 4 4 4 4 5 6 5 6
16 16 16 16 16 12 9 5 5 6 4 6 9 7 3 1 1 0 1 2 1 3 6 6 6 6 6 5 4 6 4 2 4 5 3 3 3 2 3 2 4 4 4 2 1 2 3 6 8 5 3 2 3 2 1 1 2 2 2 2 3 3 6 1 4 3 2 2 5 3 4 5 4 7 8 5 7 8 6 6 5 3 4 5 4 5 5 5
15 14 15 19 19 15 12 8 6 6 5 8 9 4 2 1 1 2 1 2 1 2 2 4 4 4 4 4 5 8 7 3 4 4 3 2 2 3 3 2 2 2 2 1 1 1 0 5 8 3 4 5 3 2 2 1 1 1 1 3 3 2 4 3 1 3 4 2 5 4 5 6 4 5 7 7 9 11 9 7 6 6 5 4 5 5 5 6
7 8 12 19 20 17 14 8 4 6 7 8 8 4 2 1 2 2 1 0 0 1 5 4 1 2 2 2 4 7 6 4 5 4 3 2 2 3 3 3 3 2 3 2 1 2 1 3 8 3 3 6 1 3 3 4 1 1 2 2 2 2 2 1 1 2 2 3 6 6 7 5 3 5 6 7 8 11 12 8 6 7 6 5 6 6 6 6
3 4 5 16 20 16 13 10 9 8 8 7 5 2 2 1 2 2 2 0 1 2 4 2 1 2 2 2 1 5 4 2 3 3 3 2 3 3 4 1 4 4 6 2 2 3 0 0 6 5 3 5 4 4 3 5 5 3 2 3 2 2 3 2 1 2 2 3 4 6 8 5 5 6 5 8 10 11 10 8 7 7 6 6 6 6 6 6
2 3 2 15 18 10 13 21 16 8 7 5 3 2 2 1 2 3 3 2 0 2 2 0 1 3 2 2 1 2 2 1 2 2 1 1 3 2 2 1 3 6 7 2 1 2 2 1 4 6 5 5 3 1 2 3 3 3 3 3 3 2 1 1 1 2 4 2 3 4 6 7 7 5 5 10 12 9 7 7 8 7 7 7 6 6 6 6
3 4 3 16 16 5 8 19 13 5 5 4 2 2 2 1 1 3 3 1 0 0 1 2 2 2 0 2 2 2 2 3 1 1 0 2 4 2 0 2 1 4 5 4 2 1 2 1 2 5 5 4 5 6 5 5 4 3 2 2 3 2 1 2 4 2 1 3 4 3 5 10 10 5 5 9 9 7 7 8 9 11 10 7 6 7 6 6
6 4 5 17 12 6 10 10 5 3 5 2 1 2 1 1 1 2 2 1 1 1 1 2 2 1 1 0 1 1 1 2 2 1 0 1 2 1 2 3 3 2 1 2 2 1 0 2 1 5 5 7 12 7 3 4 3 3 3 3 2 2 3 3 4 5 3 2 3 3 4 10 10 4 5 6 5 7 9 8 10 12 10 7 7 7 6 7
4 3 6 16 7 8 14 7 3 6 4 0 1 1 1 2 1 2 2 3 2 1 3 2 1 1 0 1 1 1 1 1 1 1 0 1 2 3 3 2 2 1 1 1 2 1 1 2 1 5 6 7 10 5 3 3 2 0 4 3 2 2 4 6 5 2 2 5 3 1 4 10 8 2 3 6 8 9 9 9 11 11 8 7 8 8 8 9
3 3 6 17 9 4 7 5 2 4 1 1 2 2 2 2 2 2 2 3 2 1 2 1 1 1 1 1 1 1 1 1 1 1 1 2 2 2 3 3 2 1 1 0 1 2 2 0 2 4 6 8 8 7 5 2 1 2 6 3 3 2 2 1 2 2 1 6 6 4 5 10 7 5 8 12 13 12 13 14 12 9 7 7 9 10 10 11
4 2 4 16 20 12 5 4 6 5 3 3 4 3 3 2 1 1 1 1 1 2 2 1 1 1 1 1 1 2 2 1 2 2 3 2 2 1 3 4 1 1 1 1 1 1 1 2 2 2 2 5 7 6 6 6 5 6 7 6 3 2 1 4 2 1 3 5 4 4 7 11 11 12 15 16 15 15 19 18 12 8 8 11 11 11 11 11
3 4 3 8 14 11 4 2 5 6 4 5 4 3 3 3 2 2 2 0 1 1 1 2 1 2 3 4 4 3 3 1 2 2 2 3 4 2 3 2 1 2 1 1 0 1 1 1 2 5 6 5 7 8 7 4 6 10 14 17 13 4 3 3 1 3 5 2 3 9 11 13 15 16 16 16 17 19 20 17 13 12 13 14 12 11 12 12
3 3 2 1 4 5 5 5 5 4 3 4 3 1 2 3 3 1 1 1 1 0 0 2 4 4 3 4 4 3 4 4 2 1 1 3 4 4 2 2 1 2 1 0 1 2 3 3 5 6 8 10 10 11 10 7 8 12 14 19 19 11 3 4 6 10 6 1 7 14 13 14 15 16 18 19 21 21 21 18 16 15 16 15 15 17 19 18
3 3 1 2 2 2 3 4 4 6 5 4 4 2 2 4 3 1 2 2 2 2 1 2 5 5 3 2 2 2 5 6 3 2 2 2 4 6 4 1 0 1 3 1 1 3 3 3 5 5 7 12 12 11 12 9 8 10 13 17 18 15 11 9 12 15 8 5 11 16 16 16 13 16 20 21 21 21 21 18 15 15 16 16 19 22 23 21
3 4 1 3 4 4 3 1 3 7 7 5 4 3 2 3 1 2 2 3 4 4 3 2 6 7 5 1 3 1 3 2 4 5 2 2 3 4 3 2 0 2 2 1 2 1 3 3 5 3 5 11 12 12 11 8 6 9 15 17 14 13 14 13 13 13 9 11 15 16 17 13 10 15 16 16 17 17 18 17 14 15 16 17 20 22 20 20
3 4 1 4 5 2 1 2 4 6 5 4 4 2 1 2 1 2 1 3 2 4 3 2 6 7 6 2 3 0 3 4 4 6 2 2 4 2 2 2 1 3 3 1 2 1 1 3 3 2 4 11 11 7 6 5 6 12 18 17 12 12 13 11 9 7 5 7 10 11 10 8 11 14 15 15 17 18 19 18 13 10 13 16 17 17 16 20
4 4 6 7 4 4 3 3 4 5 4 4 2 1 1 1 3 1 1 1 2 1 1 2 6 6 4 2 0 4 5 5 7 9 6 4 4 3 2 1 1 3 5 2 1 2 1 2 4 5 5 11 8 4 7 9 9 12 13 11 12 12 11 9 6 6 6 6 8 10 8 8 11 15 15 16 20 21 20 19 14 10 12 15 15 15 17 20
6 5 5 7 4 3 3 3 4 4 2 2 0 1 0 2 2 1 1 1 0 0 2 1 2 4 4 5 4 4 4 5 7 7 5 5 5 4 3 2 0 0 2 2 1 1 1 0 4 4 3 10 11 9 12 11 8 7 6 10 14 11 10 11 7 9 9 7 7 7 7 9 11 14 15 17 21 21 18 17 16 13 14 17 17 19 21 21
Wind_Direction
264 257 250 212 179 149 144 142 139 130 39 1 355 350 346 345 342 341 338 340 346 348 347 339 324 297 244 245 277 282 311 356 30 35 37 5 348 346 338 332 333 332 333 330 334 344 339 339 337 334 317 285 171 150 196 98 78 62 87 169 262 255 247 292 294 270 248 163 165 171 165 155 187 220 171 203 346 223 259 263 269 272 252 249 181 162 162 166
235 202 176 145 141 136 132 126 117 82 37 3 355 346 342 343 342 344 342 353 10 10 13 9 2 348 209 221 249 276 309 326 6 31 19 356 350 342 332 334 329 327 335 334 340 357 351 320 318 333 347 328 305 138 117 346 59 99 136 201 249 221 211 316 351 334 338 190 179 175 174 167 186 195 152 213 254 239 247 261 261 277 274 266 173 149 154 161
152 134 131 125 129 123 118 110 94 53 18 358 349 343 344 349 347 347 349 10 20 16 20 23 32 83 158 188 230 275 316 343 23 12 357 353 348 339 332 329 323 325 331 338 341 336 313 287 297 314 346 321 291 136 92 347 28 132 126 26 251 238 260 347 24 357 332 168 164 179 181 187 200 176 144 209 237 237 230 235 230 245 252 250 195 156 160 163
121 120 119 116 119 113 111 98 75 22 0 351 346 347 352 352 343 339 340 7 15 17 22 27 41 78 133 176 240 284 340 28 39 332 348 354 351 343 327 318 323 320 312 330 328 305 292 288 289 298 358 310 307 51 61 324 347 69 126 185 248 288 334 326 9 2 332 192 170 174 166 205 222 177 167 182 220 245 232 223 216 226 233 228 213 178 173 173
113 114 112 111 115 110 106 87 31 358 353 348 350 357 4 0 352 340 318 306 7 18 23 29 42 67 101 220 295 308 12 48 319 333 354 357 356 349 327 321 327 314 306 313 315 316 309 291 286 336 23 296 335 31 355 295 101 51 217 189 254 353 159 295 2 3 327 333 143 145 160 211 220 203 190 173 206 234 220 214 214 221 227 219 213 198 186 186
111 113 113 115 117 111 102 55 358 355 351 354 9 17 20 16 12 3 328 279 347 12 20 28 35 37 29 3 333 322 62 110 315 344 356 357 0 356 346 340 346 340 323 317 324 330 319 301 278 304 264 139 6 84 289 311 77 90 269 223 349 32 155 287 339 324 335 35 84 152 207 214 202 256 231 200 225 230 207 205 211 221 223 216 214 206 198 200
117 118 120 124 119 114 72 5 348 351 357 20 34 31 26 15 8 7 353 291 300 343 8 20 15 358 343 343 336 354 91 134 331 352 355 357 0 359 2 358 2 357 339 333 333 332 327 336 299 232 108 53 2 111 302 328 48 95 257 281 332 92 148 224 242 289 345 55 158 186 298 241 207 246 261 236 239 235 231 227 222 226 222 215 217 214 207 205
128 127 131 132 124 106 1 342 344 359 33 56 35 12 1 355 353 356 351 304 286 320 352 360 349 330 322 325 338 20 56 323 338 356 356 356 359 1 7 4 2 346 334 321 312 318 320 332 314 287 76 341 156 106 341 1 25 77 215 274 261 165 199 204 233 267 303 278 224 35 312 249 227 242 271 258 252 239 232 232 233 235 238 235 232 229 221 211
142 143 143 135 128 340 330 334 354 49 106 64 357 344 339 340 338 340 343 313 278 297 320 331 332 337 332 321 83 47 338 332 345 359 359 355 0 9 17 18 4 338 328 314 338 12 4 332 341 48 130 201 115 75 346 31 338 219 212 274 261 242 233 218 254 238 233 261 132 348 276 258 257 274 272 259 252 245 231 223 228 230 240 243 236 232 228 226
156 156 149 151 300 322 330 346 53 140 164 309 327 333 334 337 334 333 347 341 293 297 316 330 336 358 355 339 87 54 325 345 356 4 2 356 4 16 23 21 2 348 346 359 26 24 27 278 322 90 122 102 79 35 357 124 219 243 212 303 267 244 255 221 250 250 227 254 201 216 261 263 261 259 269 261 248 237 229 227 228 221 232 237 233 230 224 228
165 160 175 289 313 330 343 38 126 168 213 300 323 335 344 356 19 29 28 43 49 9 351 352 344 2 20 55 86 74 340 0 6 7 360 355 7 23 25 21 9 12 32 60 33 13 357 326 340 66 90 66 52 9 314 183 260 279 107 336 296 275 287 240 233 255 220 268 220 204 258 262 236 216 244 257 254 216 218 234 232 224 231 234 231 230 222 224
171 190 259 310 339 337 359 118 155 184 246 308 328 340 353 23 64 35 26 48 57 43 11 352 349 354 31 60 73 67 11 18 8 2 357 357 8 30 27 22 19 24 43 63 26 11 3 339 34 73 27 125 100 12 303 249 18 332 87 340 301 332 307 244 222 228 169 216 224 187 282 270 202 225 241 253 260 235 231 245 239 231 233 233 232 231 228 227
191 202 88 7 351 340 90 138 167 208 273 319 334 345 2 37 32 11 17 39 41 33 17 2 356 355 38 51 326 21 24 21 6 357 353 356 1 19 18 12 12 19 41 60 38 29 30 24 83 99 83 92 158 196 115 358 44 325 32 169 303 359 315 248 203 179 168 207 208 116 310 281 228 233 249 261 267 252 239 248 244 237 235 233 232 229 232 230
170 139 71 357 352 37 121 146 179 244 298 331 338 351 13 21 8 20 43 55 61 34 22 17 1 2 64 90 263 7 7 359 0 352 347 349 350 352 354 353 351 354 22 47 43 31 35 51 80 87 65 86 170 186 39 359 37 316 347 27 338 357 295 283 199 158 172 219 139 100 251 273 272 260 266 273 269 244 231 245 245 240 242 236 234 231 236 234
140 106 20 359 3 106 139 165 205 283 320 342 354 19 37 36 21 29 46 70 81 22 17 36 7 11 79 8 282 340 345 344 348 345 346 344 346 342 336 336 330 311 307 6 25 360 352 27 64 81 12 14 60 48 359 342 339 21 19 326 330 320 285 304 272 173 188 255 104 106 236 274 285 273 266 281 314 286 248 254 248 244 245 238 241 236 238 245
128 44 8 3 47 140 159 176 231 320 345 354 26 51 39 29 16 23 36 37 49 15 26 24 354 26 107 336 317 341 343 349 342 341 345 338 331 317 319 328 326 300 264 273 316 316 322 43 63 114 97 18 30 52 19 12 340 357 53 295 297 315 314 317 301 221 187 296 98 197 252 280 284 274 269 290 322 306 278 270 260 250 246 238 240 236 237 245
96 17 7 23 126 147 164 155 10 343 346 347 32 38 29 34 16 1 277 284 344 12 28 10 348 51 102 329 324 338 330 333 333 336 345 341 322 308 319 326 330 338 312 289 285 281 314 37 48 7 68 30 9 70 44 15 324 327 23 335 284 293 312 314 309 311 9 28 267 257 253 263 273 283 289 292 292 280 271 268 263 254 250 246 244 242 242 238
54 13 12 70 141 140 125 106 66 12 7 9 27 17 59 74 47 37 14 277 247 313 355 357 3 65 15 336 330 314 309 314 324 332 344 346 329 313 318 296 298 335 338 328 301 294 337 3 65 28 27 14 15 63 47 306 249 278 303 317 305 306 304 290 288 304 11 8 282 281 271 270 278 288 294 295 281 265 267 267 266 263 256 253 253 250 245 238
22 15 32 102 135 133 123 118 108 93 83 70 64 72 119 79 40 39 40 47 64 31 24 326 11 112 287 316 309 313 311 306 316 342 352 351 334 319 312 280 280 336 5 20 349 345 28 25 43 29 341 331 358 92 147 220 206 236 255 255 282 296 294 278 273 274 10 353 278 264 267 280 291 298 298 302 307 274 273 278 275 269 261 259 262 260 262 259
1 23 104 130 140 143 137 129 114 94 74 73 83 76 50 353 4 16 28 41 65 103 126 272 359 111 311 303 313 334 331 301 287 352 357 350 328 328 331 307 11 34 42 39 307 339 88 62 38 247 252 257 266 183 178 227 235 256 285 295 284 288 288 279 281 301 3 358 266 259 278 287 292 296 296 303 317 304 290 297 299 296 300 313 307 307 326 311
343 149 165 154 150 149 145 134 104 70 58 84 123 64 109 176 62 27 336 11 327 72 106 280 294 125 296 277 323 349 359 319 293 338 357 352 335 348 340 22 45 17 340 248 282 351 68 64 324 238 235 251 275 266 267 324 319 310 308 312 308 289 276 282 297 328 13 9 289 292 311 297 294 297 296 305 318 313 307 306 319 359 20 24 27 22 13 353
319 205 186 176 162 153 151 143 93 51 49 69 111 93 126 142 105 146 153 57 320 353 18 328 13 3 292 284 343 355 52 8 324 321 356 358 8 19 337 36 53 342 330 8 19 5 37 45 282 274 326 343 315 290 310 325 332 334 329 335 319 295 284 300 329 355 12 360 302 315 323 299 295 297 295 305 314 301 319 344 17 43 47 42 43 40 32 24
312 209 188 182 164 156 159 159 114 44 41 60 102 105 110 101 94 152 117 95 311 331 19 10 34 349 324 358 359 2 60 28 326 316 354 1 7 22 32 34 16 343 3 28 54 39 21 311 283 320 7 9 337 330 1 354 352 341 328 329 306 320 349 313 323 343 332 290 279 311 315 295 305 320 316 326 351 2 15 42 57 59 60 56 56 54 46 42
256 194 187 179 161 160 168 174 176 37 41 77 102 107 109 79 47 34 78 114 335 305 256 256 159 17 329 322 352 6 73 33 313 319 354 11 360 352 56 34 8 12 360 15 74 91 28 279 309 3 360 18 348 344 24 20 348 318 290 285 288 314 322 265 301 328 319 294 302 344 330 306 329 347 344 340 13 26 27 49 56 47 52 54 50 47 48 52
221 190 183 175 162 167 174 178 202 9 35 90 118 125 114 74 24 16 44 87 2 303 290 311 182 4 329 305 349 358 120 9 271 305 350 23 11 342 33 8 35 12 333 1 62 81 2 289 358 13 349 19 12 342 11 27 350 324 291 238 256 290 290 290 326 339 346 341 9 38 9 305 320 339 330 332 19 25 14 39 49 36 41 43 40 33 30 40
212 191 181 173 163 166 169 170 214 253 300 282 197 190 157 97 11 7 48 74 4 310 346 351 188 355 343 338 340 112 85 350 301 332 358 22 18 96 46 343 30 16 325 2 55 82 3 333 10 21 351 14 24 353 347 44 25 332 278 223 259 292 307 324 354 4 2 303 300 60 106 258 310 315 295 334 27 23 7 19 20 17 40 47 48 34 23 25
203 191 182 171 159 157 164 170 224 229 262 277 264 235 210 205 345 354 52 52 359 337 3 328 320 1 344 334 345 84 90 314 326 18 11 13 354 121 61 7 15 348 310 54 27 348 3 358 7 20 21 25 25 354 317 50 40 297 246 227 304 306 310 319 27 111 229 275 309 6 134 196 296 281 280 350 42 20 3 358 342 339 3 28 38 24 19 17
197 188 182 171 157 151 139 109 156 203 250 283 291 259 219 228 320 10 85 69 345 16 27 300 327 352 336 343 9 78 123 309 19 356 350 20 3 11 64 32 30 318 324 75 24 317 13 19 2 17 32 27 2 287 274 60 38 268 247 279 293 292 282 254 181 224 246 30 337 321 87 153 274 275 308 9 53 11 334 312 312 318 325 350 12 352 352 4
193 184 180 175 170 158 123 75 336 284 286 291 295 243 208 220 356 46 81 98 329 353 231 313 350 335 344 0 16 44 4 358 67 310 339 26 6 13 85 26 43 347 347 62 52 284 4 23 226 73 49 346 279 264 253 139 255 273 285 295 293 310 226 196 167 215 7 51 294 278 328 42 285 289 320 4 42 326 282 281 292 301 316 326 335 329 341 356
184 179 179 180 181 183 189 303 307 300 299 301 256 186 182 103 60 58 45 57 341 319 306 25 3 331 8 16 353 3 16 1 338 332 1 25 5 16 82 358 47 62 6 22 56 265 306 291 202 102 90 241 262 277 264 192 238 303 341 327 331 15 47 46 74 95 49 11 260 249 216 85 310 294 285 296 299 253 240 270 291 298 310 310 313 324 337 347
168 169 176 181 184 197 225 288 304 297 296 189 159 149 88 29 62 83 64 334 329 333 354 8 341 352 21 30 349 347 4 340 341 20 14 7 14 18 31 17 18 44 14 4 7 348 349 1 349 283 244 241 301 310 324 335 350 10 7 355 355 352 13 14 355 40 46 304 261 245 252 108 240 271 277 275 272 243 215 240 283 285 285 283 296 317 338 354
151 154 164 174 182 193 220 270 280 288 120 134 116 67 75 40 34 72 316 321 347 343 348 320 316 346 353 18 13 341 341 341 354 45 33 22 39 33 40 30 354 8 12 0 353 349 352 330 303 294 283 38 23 338 339 355 22 23 10 27 26 355 3 3 339 2 356 269 263 270 358 309 235 251 268 270 262 239 222 220 237 251 261 271 299 339 355 356
130 142 145 145 166 181 189 263 259 119 93 36 32 49 78 74 41 352 305 341 4 317 328 286 299 324 341 19 8 336 348 357 352 24 40 57 58 38 37 31 22 26 351 338 358 354 339 306 318 351 337 36 65 27 351 330 345 356 10 61 60 36 11 337 313 336 314 281 288 310 101 270 286 268 249 241 231 227 225 220 225 244 248 242 350 10 6 357
114 133 130 113 112 114 87 60 84 85 17 19 48 54 64 72 34 339 340 312 286 331 353 321 316 335 18 43 350 338 12 349 350 22 20 30 40 12 4 6 16 33 207 23 23 20 6 317 314 12 334 353 51 68 195 248 305 295 203 121 107 114 104 262 263 301 301 294 301 327 115 239 298 282 257 250 235 236 248 261 270 281 270 113 18 7 6 354
106 102 94 77 63 53 42 41 24 356 6 43 67 60 67 82 287 355 349 291 308 339 322 325 2 21 14 357 333 4 24 310 350 40 33 32 46 8 360 350 353 14 49 35 354 24 30 281 265 290 316 118 358 259 170 109 322 276 175 87 41 190 160 200 225 231 267 294 295 313 241 246 271 272 278 309 288 270 283 298 312 311 315 16 12 349 350 340
95 80 65 47 36 27 20 13 350 350 13 75 70 56 80 134 274 104 284 298 334 316 317 346 28 38 353 332 343 353 356 305 351 34 38 45 64 11 1 312 327 17 58 75 316 5 27 281 280 329 344 205 191 231 217 115 311 323 38 22 274 190 144 153 277 268 355 334 281 291 286 297 326 293 298 353 325 307 321 321 314 298 321 2 352 324 327 321
85 74 54 32 24 21 14 357 349 13 58 82 76 79 137 168 199 188 264 330 329 295 9 28 21 28 356 336 338 337 344 355 2 26 26 23 38 11 1 294 288 40 60 120 270 283 81 290 290 315 306 270 198 177 281 259 133 54 328 269 285 67 105 110 310 327 16 346 279 296 289 296 330 301 311 338 321 312 319 317 303 290 308 332 312 303 302 301
85 82 53 23 14 14 11 1 18 60 74 69 72 97 105 99 197 198 245 334 291 7 59 68 7 50 36 359 328 323 345 9 355 10 33 14 18 53 45 317 296 27 357 345 317 275 133 303 294 262 258 288 342 65 339 314 336 144 238 269 35 30 322 359 29 303 338 303 284 299 299 284 237 243 288 308 299 301 306 310 299 286 295 308 297 295 297 307
60 87 42 4 3 12 31 62 77 71 68 67 77 98 88 110 250 238 202 184 112 79 64 39 308 39 49 61 326 309 345 19 336 7 57 22 356 74 90 323 295 348 349 3 168 271 32 75 291 287 294 315 358 41 343 311 325 354 344 341 22 175 202 210 207 176 188 256 269 298 310 293 230 218 240 273 285 291 295 304 296 280 279 288 290 291 300 322
46 84 19 353 360 14 57 68 64 49 61 84 126 109 71 168 275 264 208 192 130 101 80 346 4 29 5 15 359 304 346 338 309 17 58 353 348 11 76 56 308 319 329 358 136 293 353 107 268 289 325 358 358 293 230 258 297 338 350 336 315 286 253 270 270 149 149 204 241 286 298 277 254 234 239 275 288 285 278 295 310 308 293 279 282 290 302 334
47 83 333 346 351 331 55 57 49 39 70 72 99 82 53 165 284 300 244 214 336 121 124 138 101 68 356 359 344 291 331 320 313 61 20 14 32 358 253 153 226 309 333 6 34 356 359 111 246 297 328 339 285 253 197 186 199 183 216 246 224 230 8 332 294 291 129 167 205 240 278 274 271 266 261 271 280 290 306 317 325 325 311 287 286 295 310 346
56 91 324 347 6 81 74 53 14 42 80 60 60 98 74 128 94 326 314 19 42 18 44 96 100 85 141 341 301 287 329 317 339 35 56 39 52 250 220 192 219 259 350 345 329 300 10 111 172 281 274 267 277 280 143 157 192 175 207 221 182 148 127 170 250 280 303 268 220 199 254 269 272 262 256 269 292 313 322 324 320 319 310 295 302 310 331 353
70 131 354 359 16 98 74 58 347 32 71 203 24 62 37 84 64 352 11 27 23 11 22 41 64 43 137 217 304 332 313 223 307 358 6 301 254 216 217 248 278 246 153 312 319 329 346 85 43 291 283 280 289 311 88 131 131 278 263 238 212 214 157 175 208 216 280 277 255 184 251 269 280 286 268 303 327 322 318 319 319 317 308 308 324 335 354 358
98 147 16 19 30 105 79 91 119 70 100 209 45 28 9 55 60 29 22 5 1 76 68 346 280 38 235 199 144 262 308 46 349 353 13 286 261 218 236 264 279 177 155 271 340 357 310 336 52 345 332 329 327 347 358 333 13 286 268 245 201 196 109 150 244 83 288 255 223 193 248 265 285 326 322 319 324 322 321 325 326 317 314 334 350 357 5 6
71 78 350 22 41 65 95 143 137 129 150 109 68 37 21 36 36 90 106 356 307 166 141 299 304 90 288 3 69 307 342 57 284 340 14 293 278 267 248 252 241 189 224 296 9 27 264 206 105 82 343 316 313 316 308 304 324 308 289 292 265 181 220 288 296 109 243 247 199 199 248 269 292 314 315 313 320 324 325 329 334 336 351 5 8 8 11 11
72 56 336 3 31 51 66 92 100 113 141 118 72 25 52 54 315 251 148 79 280 201 141 334 19 51 9 31 33 327 326 5 286 346 7 288 279 277 235 232 254 218 224 327 346 87 81 231 199 171 188 236 255 258 264 281 300 294 293 295 291 262 218 238 188 210 233 266 267 249 259 280 292 301 307 315 328 331 331 339 351 4 11 11 8 9 8 6
95 79 65 7 10 29 33 21 48 82 126 124 101 24 52 39 332 314 153 216 246 170 61 31 48 47 9 24 36 319 311 338 345 343 299 266 269 291 262 181 274 249 162 83 224 127 71 312 251 199 214 243 249 259 275 284 277 276 282 286 290 297 270 198 225 244 239 351 281 267 276 286 292 311 329 340 349 349 348 358 8 11 10 6 6 6 3 1
82 119 157 121 82 61 48 24 53 74 62 78 99 75 39 36 28 3 284 310 3 26 46 25 20 21 353 352 67 323 320 342 343 292 293 296 306 328 335 170 200 110 109 49 270 133 103 278 245 196 235 259 260 266 275 276 269 267 267 272 285 299 293 260 253 255 246 238 260 272 284 288 309 346 353 357 3 360 355 1 11 12 7 7 5 0 355 352
86 102 9 51 93 155 168 51 72 73 56 60 76 59 67 75 53 263 285 3 356 349 49 33 334 335 327 294 121 72 316 350 326 295 298 327 316 330 333 309 326 79 86 2 291 147 124 265 258 217 254 270 269 267 267 264 269 279 279 281 288 290 281 270 263 262 251 240 254 274 286 295 349 6 354 354 359 355 353 358 7 6 2 1 357 352 348 343
127 132 128 67 70 122 161 31 64 71 45 49 70 44 77 121 195 272 359 62 1 334 27 34 309 308 304 268 122 232 246 194 241 260 235 329 308 262 255 281 296 335 356 6 295 342 90 278 303 7 311 292 279 268 267 257 268 284 286 291 303 303 298 294 286 292 291 269 281 303 309 326 5 356 341 348 353 352 354 355 355 352 349 350 349 345 339 333
93 122 133 110 63 17 25 23 63 79 35 13 83 156 3 183 191 189 351 144 150 296 323 311 304 311 325 337 288 273 258 206 222 242 225 229 260 243 243 264 72 347 339 346 332 353 16 286 335 26 343 300 294 318 315 300 294 289 289 306 319 317 318 314 316 4 16 352 357 10 359 345 350 343 339 349 352 350 349 346 338 329 336 343 341 332 326 325
90 92 104 102 73 18 26 16 36 75 66 335 187 168 220 247 222 90 37 281 49 287 201 188 324 339 355 338 312 287 273 244 243 256 244 231 251 263 263 269 137 157 298 308 303 310 118 306 328 9 332 294 305 329 320 319 331 311 314 346 336 327 340 339 356 40 36 27 24 14 347 333 339 342 344 349 349 343 339 336 326 318 328 332 325 321 320 318